SAS3KA EFHK-ENTC

Flight info

Callsign SAS3KA
Flight time 1h 35m
Altitude 38000
Route NEPEK Y361 NISVI DCT DIVEG DCT LAMPI P854 ROSMO DCT BEGDO DCT RIXEM DCT MANKI
Aircraft A320/M-SDE3FGHIRWY/LB1

Departure

Time 2026-05-05 12:43
Airport Helsinki Vantaa Airport (EFHK)

Arrival

Time 2026-05-05 14:19
Airport Tromsø Airport (ENTC)
Time Latitude Longitude Altitude Speed Heading
2026-05-05 12:09 60.31874 24.96539 154 ft 0 kts 136°
2026-05-05 12:35 60.31882 24.96525 134 ft 4 kts 139°
2026-05-05 12:35 60.31904 24.96493 161 ft 4 kts 156°
2026-05-05 12:35 60.31927 24.96483 161 ft 4 kts 208°
2026-05-05 12:35 60.31934 24.96492 161 ft 0 kts 228°
2026-05-05 12:37 60.31932 24.96485 161 ft 0 kts 228°
2026-05-05 12:37 60.31907 24.96429 161 ft 10 kts 228°
2026-05-05 12:37 60.31856 24.96292 161 ft 13 kts 247°
2026-05-05 12:38 60.31875 24.96128 161 ft 13 kts 309°
2026-05-05 12:38 60.31949 24.95989 161 ft 16 kts 318°
2026-05-05 12:38 60.31999 24.95898 162 ft 3 kts 317°
2026-05-05 12:38 60.32022 24.95855 162 ft 6 kts 317°
2026-05-05 12:39 60.32062 24.95781 163 ft 11 kts 317°
2026-05-05 12:39 60.32131 24.95655 162 ft 15 kts 318°
2026-05-05 12:39 60.32216 24.95497 161 ft 18 kts 316°
2026-05-05 12:39 60.32314 24.95314 161 ft 20 kts 321°
2026-05-05 12:40 60.32437 24.95207 161 ft 15 kts 344°
2026-05-05 12:40 60.32545 24.95141 161 ft 18 kts 342°
2026-05-05 12:40 60.32671 24.95058 161 ft 20 kts 343°
2026-05-05 12:40 60.32805 24.94972 161 ft 19 kts 342°
2026-05-05 12:41 60.32910 24.94883 161 ft 15 kts 322°
2026-05-05 12:41 60.32995 24.94726 161 ft 18 kts 317°
2026-05-05 12:41 60.33067 24.94591 163 ft 8 kts 317°
2026-05-05 12:41 60.33100 24.94531 167 ft 4 kts 316°
2026-05-05 12:42 60.33123 24.94465 171 ft 10 kts 291°
2026-05-05 12:42 60.33097 24.94353 174 ft 7 kts 228°
2026-05-05 12:42 60.33096 24.94350 174 ft 0 kts 228°
2026-05-05 12:43 60.32975 24.94079 178 ft 61 kts 228°
2026-05-05 12:43 60.32541 24.93123 166 ft 120 kts 228°
2026-05-05 12:43 60.31897 24.91671 409 ft 142 kts 232°
2026-05-05 12:43 60.31240 24.90212 1078 ft 141 kts 232°
2026-05-05 12:44 60.30600 24.88726 1629 ft 147 kts 241°
2026-05-05 12:44 60.30208 24.86664 1962 ft 167 kts 264°
2026-05-05 12:44 60.30321 24.84235 2280 ft 189 kts 289°
2026-05-05 12:44 60.30874 24.81660 2648 ft 211 kts 292°
2026-05-05 12:45 60.31496 24.78816 3192 ft 232 kts 292°
2026-05-05 12:45 60.32213 24.75803 4035 ft 241 kts 296°
2026-05-05 12:45 60.33014 24.72823 5004 ft 246 kts 297°
2026-05-05 12:45 60.33862 24.69787 5971 ft 250 kts 297°
2026-05-05 12:46 60.34130 24.68836 6266 ft 251 kts 297°
2026-05-05 12:46 60.34282 24.68296 6421 ft 251 kts 297°
2026-05-05 12:46 60.35162 24.65219 7355 ft 254 kts 300°
2026-05-05 12:46 60.36375 24.62553 8298 ft 263 kts 317°
2026-05-05 12:47 60.38036 24.60830 9247 ft 276 kts 335°
2026-05-05 12:47 60.39946 24.60082 10022 ft 289 kts 341°
2026-05-05 12:47 60.42018 24.59377 10295 ft 312 kts 342°
2026-05-05 12:47 60.44218 24.58629 10788 ft 325 kts 342°
2026-05-05 12:48 60.46474 24.57875 11467 ft 331 kts 341°
2026-05-05 12:48 60.48769 24.57115 12161 ft 336 kts 341°
2026-05-05 12:48 60.50974 24.56385 12819 ft 341 kts 340°
2026-05-05 12:49 60.52894 24.55748 13367 ft 346 kts 340°
2026-05-05 12:49 60.55295 24.54942 13999 ft 351 kts 340°
2026-05-05 12:49 60.57726 24.54126 14652 ft 355 kts 339°
2026-05-05 12:49 60.60153 24.53310 15300 ft 358 kts 339°
2026-05-05 12:50 60.62635 24.52473 15958 ft 361 kts 339°
2026-05-05 12:50 60.65130 24.51628 16613 ft 365 kts 339°
2026-05-05 12:50 60.67650 24.50771 17270 ft 368 kts 339°
2026-05-05 12:50 60.70165 24.49914 17935 ft 371 kts 339°
2026-05-05 12:51 60.72713 24.48969 18529 ft 369 kts 334°
2026-05-05 12:51 60.75121 24.47373 19109 ft 360 kts 325°
2026-05-05 12:51 60.77334 24.45094 19716 ft 355 kts 319°
2026-05-05 12:51 60.79507 24.42642 20322 ft 358 kts 319°
2026-05-05 12:52 60.81697 24.40166 20907 ft 361 kts 319°
2026-05-05 12:52 60.83878 24.37696 21463 ft 364 kts 319°
2026-05-05 12:52 60.86107 24.35166 22016 ft 367 kts 319°
2026-05-05 12:52 60.88361 24.32609 22581 ft 371 kts 319°
2026-05-05 12:53 60.90639 24.30022 23145 ft 374 kts 319°
2026-05-05 12:53 60.92900 24.27446 23631 ft 378 kts 319°
2026-05-05 12:53 60.95211 24.24814 24096 ft 380 kts 319°
2026-05-05 12:53 60.97542 24.22160 24557 ft 383 kts 319°
2026-05-05 12:54 61.02248 24.16784 25461 ft 388 kts 319°
2026-05-05 12:54 61.04616 24.14067 25907 ft 391 kts 319°
2026-05-05 12:54 61.06997 24.11327 26341 ft 393 kts 319°
2026-05-05 12:55 61.09368 24.08590 26762 ft 395 kts 319°
2026-05-05 12:55 61.11777 24.05805 27179 ft 398 kts 319°
2026-05-05 12:55 61.14193 24.02982 27597 ft 399 kts 318°
2026-05-05 12:55 61.16602 24.00087 28012 ft 401 kts 317°
2026-05-05 12:56 61.19012 23.97137 28423 ft 402 kts 317°
2026-05-05 12:56 61.21405 23.94176 28819 ft 404 kts 317°
2026-05-05 12:56 61.23839 23.91155 29222 ft 407 kts 317°
2026-05-05 12:56 61.26280 23.88136 29623 ft 410 kts 317°
2026-05-05 12:57 61.28746 23.85095 29976 ft 412 kts 318°
2026-05-05 12:57 61.31202 23.82078 30295 ft 415 kts 318°
2026-05-05 12:57 61.33700 23.79006 30614 ft 418 kts 318°
2026-05-05 12:57 61.36222 23.75897 30928 ft 420 kts 319°
2026-05-05 12:58 61.38744 23.72780 31274 ft 421 kts 319°
2026-05-05 12:58 61.41274 23.69645 31718 ft 421 kts 319°
2026-05-05 12:58 61.43758 23.66565 32161 ft 420 kts 319°
2026-05-05 12:58 61.46276 23.63439 32614 ft 419 kts 319°
2026-05-05 12:59 61.48788 23.60308 33069 ft 419 kts 320°
2026-05-05 12:59 61.51296 23.57174 33529 ft 418 kts 320°
2026-05-05 12:59 61.53763 23.54081 33928 ft 417 kts 320°
2026-05-05 13:00 61.58760 23.47790 34558 ft 419 kts 320°
2026-05-05 13:00 61.61270 23.44623 34834 ft 420 kts 320°
2026-05-05 13:01 61.68813 23.35070 35616 ft 424 kts 321°
2026-05-05 13:01 61.71351 23.31848 35872 ft 426 kts 321°
2026-05-05 13:01 61.73858 23.28665 36119 ft 427 kts 321°
2026-05-05 13:01 61.76414 23.25424 36363 ft 428 kts 322°
2026-05-05 13:02 61.78980 23.22163 36597 ft 429 kts 322°
2026-05-05 13:02 61.81548 23.18883 36839 ft 430 kts 322°
2026-05-05 13:02 61.84115 23.15589 37074 ft 431 kts 322°
2026-05-05 13:02 61.86658 23.12316 37298 ft 432 kts 322°
2026-05-05 13:03 61.89235 23.08992 37521 ft 433 kts 322°
2026-05-05 13:03 61.91817 23.05652 37688 ft 435 kts 322°
2026-05-05 13:03 61.96987 22.98952 37715 ft 436 kts 322°
2026-05-05 13:04 62.02191 22.92206 37719 ft 437 kts 322°
2026-05-05 13:04 62.07342 22.85481 37715 ft 437 kts 322°
2026-05-05 13:05 62.12530 22.78683 37716 ft 437 kts 322°
2026-05-05 13:05 62.17700 22.71896 37722 ft 437 kts 322°
2026-05-05 13:06 62.22894 22.65055 37729 ft 437 kts 322°
2026-05-05 13:06 62.28058 22.58208 37736 ft 438 kts 322°
2026-05-05 13:07 62.33249 22.51310 37738 ft 438 kts 322°
2026-05-05 13:07 62.38448 22.44351 37736 ft 438 kts 322°
2026-05-05 13:08 62.43607 22.37422 37734 ft 439 kts 322°
2026-05-05 13:08 62.48772 22.30463 37735 ft 439 kts 322°
2026-05-05 13:09 62.53961 22.23437 37733 ft 439 kts 322°
2026-05-05 13:09 62.59150 22.16387 37734 ft 439 kts 322°
2026-05-05 13:10 62.64334 22.09312 37737 ft 440 kts 322°
2026-05-05 13:10 62.69495 22.02242 37740 ft 440 kts 322°
2026-05-05 13:11 62.74688 21.95093 37735 ft 440 kts 322°
2026-05-05 13:11 62.79852 21.87976 37730 ft 440 kts 322°
2026-05-05 13:12 62.85050 21.80772 37732 ft 441 kts 322°
2026-05-05 13:12 62.90200 21.73584 37732 ft 441 kts 322°
2026-05-05 13:13 62.95711 21.67347 37733 ft 446 kts 328°
2026-05-05 13:13 63.01265 21.61415 37731 ft 446 kts 328°
2026-05-05 13:14 63.06845 21.55395 37731 ft 446 kts 328°
2026-05-05 13:14 63.12431 21.49344 37733 ft 446 kts 328°
2026-05-05 13:15 63.17985 21.43305 37719 ft 446 kts 328°
2026-05-05 13:15 63.23564 21.37224 37728 ft 446 kts 328°
2026-05-05 13:16 63.29152 21.31121 37722 ft 446 kts 328°
2026-05-05 13:16 63.34944 21.26140 37712 ft 458 kts 348°
2026-05-05 13:17 63.41246 21.25098 37712 ft 462 kts 351°
2026-05-05 13:17 63.47757 21.24232 37705 ft 463 kts 351°
2026-05-05 13:18 63.54217 21.23366 37696 ft 463 kts 351°
2026-05-05 13:18 63.59951 21.22561 37696 ft 464 kts 351°
2026-05-05 13:19 63.63787 21.22006 37692 ft 464 kts 351°
2026-05-05 13:19 63.70231 21.21071 37687 ft 464 kts 351°
2026-05-05 13:20 63.76699 21.20139 37679 ft 465 kts 351°
2026-05-05 13:20 63.83130 21.19222 37676 ft 465 kts 351°
2026-05-05 13:21 63.86560 21.18740 37682 ft 465 kts 351°
2026-05-05 13:21 63.92998 21.17833 37668 ft 465 kts 351°
2026-05-05 13:22 63.99473 21.16903 37663 ft 465 kts 351°
2026-05-05 13:22 64.05953 21.15960 37660 ft 465 kts 351°
2026-05-05 13:23 64.12387 21.15015 37657 ft 464 kts 351°
2026-05-05 13:23 64.18823 21.14059 37652 ft 464 kts 351°
2026-05-05 13:24 64.25279 21.13093 37650 ft 464 kts 352°
2026-05-05 13:24 64.31753 21.12144 37647 ft 464 kts 352°
2026-05-05 13:25 64.38171 21.11197 37642 ft 464 kts 352°
2026-05-05 13:25 64.44605 21.10228 37646 ft 464 kts 352°
2026-05-05 13:26 64.51060 21.09255 37652 ft 464 kts 352°
2026-05-05 13:26 64.56427 21.08437 37647 ft 464 kts 352°
2026-05-05 13:27 64.63932 21.07282 37647 ft 464 kts 352°
2026-05-05 13:27 64.70360 21.06314 37649 ft 463 kts 352°
2026-05-05 13:28 64.75723 21.05493 37643 ft 463 kts 352°
2026-05-05 13:28 64.82170 21.04488 37636 ft 463 kts 352°
2026-05-05 13:29 64.88579 21.03486 37628 ft 463 kts 352°
2026-05-05 13:29 64.95004 21.02490 37618 ft 462 kts 352°
2026-05-05 13:30 65.01438 21.01498 37611 ft 462 kts 352°
2026-05-05 13:30 65.07831 21.00504 37608 ft 462 kts 352°
2026-05-05 13:31 65.14255 20.99485 37608 ft 462 kts 352°
2026-05-05 13:31 65.20648 20.98462 37608 ft 461 kts 352°
2026-05-05 13:32 65.27062 20.97446 37609 ft 461 kts 352°
2026-05-05 13:32 65.33450 20.96434 37611 ft 461 kts 352°
2026-05-05 13:33 65.39863 20.95402 37609 ft 461 kts 352°
2026-05-05 13:33 65.46267 20.94349 37609 ft 461 kts 352°
2026-05-05 13:34 65.52685 20.93303 37606 ft 461 kts 352°
2026-05-05 13:34 65.59051 20.92280 37610 ft 461 kts 353°
2026-05-05 13:35 65.65465 20.91248 37611 ft 460 kts 353°
2026-05-05 13:35 65.71840 20.90195 37612 ft 460 kts 353°
2026-05-05 13:36 65.78250 20.89118 37614 ft 460 kts 353°
2026-05-05 13:36 65.84618 20.88039 37617 ft 460 kts 353°
2026-05-05 13:37 65.91025 20.86984 37615 ft 460 kts 353°
2026-05-05 13:37 65.97423 20.85915 37608 ft 460 kts 353°
2026-05-05 13:38 66.03802 20.84835 37608 ft 460 kts 353°
2026-05-05 13:38 66.10205 20.83739 37610 ft 460 kts 353°
2026-05-05 13:39 66.16569 20.82653 37609 ft 460 kts 353°
2026-05-05 13:39 66.22992 20.81552 37614 ft 460 kts 353°
2026-05-05 13:40 66.29365 20.80447 37607 ft 460 kts 353°
2026-05-05 13:40 66.35772 20.79330 37612 ft 460 kts 353°
2026-05-05 13:41 66.42135 20.78226 37605 ft 460 kts 353°
2026-05-05 13:41 66.48536 20.77118 37605 ft 460 kts 353°
2026-05-05 13:42 66.54903 20.75999 37607 ft 460 kts 353°
2026-05-05 13:42 66.61314 20.74856 37603 ft 460 kts 353°
2026-05-05 13:43 66.67660 20.73724 37601 ft 459 kts 353°
2026-05-05 13:43 66.74061 20.72602 37602 ft 459 kts 353°
2026-05-05 13:44 66.80414 20.71469 37592 ft 459 kts 353°
2026-05-05 13:44 66.86807 20.70306 37580 ft 459 kts 353°
2026-05-05 13:45 66.93194 20.69139 37564 ft 459 kts 353°
2026-05-05 13:45 66.99544 20.67977 37549 ft 459 kts 353°
2026-05-05 13:46 67.05934 20.66791 37536 ft 459 kts 353°
2026-05-05 13:46 67.12280 20.65616 37535 ft 459 kts 353°
2026-05-05 13:47 67.18634 20.64456 37535 ft 459 kts 353°
2026-05-05 13:47 67.25024 20.63266 37547 ft 459 kts 353°
2026-05-05 13:48 67.31403 20.62073 37565 ft 459 kts 353°
2026-05-05 13:48 67.37735 20.60884 37582 ft 458 kts 353°
2026-05-05 13:49 67.44056 20.59692 37603 ft 458 kts 353°
2026-05-05 13:49 67.50421 20.58472 37614 ft 458 kts 353°
2026-05-05 13:50 67.56788 20.57242 37606 ft 458 kts 353°
2026-05-05 13:50 67.63148 20.56016 37589 ft 458 kts 353°
2026-05-05 13:51 67.69516 20.54777 37581 ft 458 kts 353°
2026-05-05 13:51 67.72654 20.54168 37196 ft 461 kts 354°
2026-05-05 13:51 67.75849 20.53548 36633 ft 460 kts 354°
2026-05-05 13:52 67.79028 20.52933 36166 ft 457 kts 354°
2026-05-05 13:52 67.82186 20.52322 35750 ft 453 kts 354°
2026-05-05 13:52 67.85320 20.51711 35363 ft 449 kts 354°
2026-05-05 13:52 67.88425 20.51105 34990 ft 445 kts 354°
2026-05-05 13:53 67.91504 20.50501 34617 ft 442 kts 354°
2026-05-05 13:53 67.94561 20.49897 34245 ft 438 kts 353°
2026-05-05 13:53 67.97596 20.49292 33881 ft 435 kts 354°
2026-05-05 13:53 68.00601 20.48687 33517 ft 431 kts 354°
2026-05-05 13:54 68.03583 20.48081 33083 ft 427 kts 354°
2026-05-05 13:54 68.06535 20.47487 32669 ft 423 kts 354°
2026-05-05 13:54 68.09459 20.46900 32274 ft 419 kts 354°
2026-05-05 13:54 68.12354 20.46317 31888 ft 415 kts 354°
2026-05-05 13:55 68.15227 20.45740 31501 ft 411 kts 354°
2026-05-05 13:55 68.18069 20.45168 31130 ft 407 kts 354°
2026-05-05 13:55 68.20851 20.44604 30758 ft 404 kts 354°
2026-05-05 13:55 68.23642 20.44042 30403 ft 400 kts 354°
2026-05-05 13:56 68.26406 20.43489 30055 ft 397 kts 354°
2026-05-05 13:56 68.29148 20.42930 29712 ft 394 kts 354°
2026-05-05 13:56 68.31870 20.42368 29313 ft 390 kts 355°
2026-05-05 13:56 68.34565 20.41812 28907 ft 387 kts 355°
2026-05-05 13:57 68.37235 20.41262 28521 ft 383 kts 355°
2026-05-05 13:57 68.39889 20.40713 28153 ft 380 kts 355°
2026-05-05 13:57 68.42521 20.40165 27792 ft 377 kts 355°
2026-05-05 13:57 68.45130 20.39624 27434 ft 374 kts 355°
2026-05-05 13:58 68.47717 20.39088 27067 ft 371 kts 355°
2026-05-05 13:58 68.50280 20.38556 26722 ft 368 kts 355°
2026-05-05 13:58 68.52822 20.38025 26358 ft 364 kts 355°
2026-05-05 13:58 68.55339 20.37498 26005 ft 361 kts 355°
2026-05-05 13:59 68.60280 20.36453 25620 ft 356 kts 355°
2026-05-05 13:59 68.62756 20.35930 25627 ft 357 kts 355°
2026-05-05 14:00 68.67739 20.34885 25575 ft 355 kts 355°
2026-05-05 14:00 68.69368 20.34544 25329 ft 353 kts 355°
2026-05-05 14:00 68.72607 20.33858 24722 ft 351 kts 355°
2026-05-05 14:00 68.75021 20.33318 24225 ft 345 kts 352°
2026-05-05 14:01 68.77334 20.31787 23724 ft 340 kts 339°
2026-05-05 14:01 68.79433 20.28858 23235 ft 337 kts 326°
2026-05-05 14:01 68.81224 20.24743 22629 ft 334 kts 313°
2026-05-05 14:01 68.82687 20.19786 22054 ft 332 kts 308°
2026-05-05 14:02 68.84103 20.14738 21492 ft 330 kts 308°
2026-05-05 14:02 68.85508 20.09741 20930 ft 327 kts 308°
2026-05-05 14:02 68.86898 20.04778 20385 ft 325 kts 308°
2026-05-05 14:02 68.88276 19.99842 19846 ft 323 kts 308°
2026-05-05 14:03 68.89644 19.94933 19317 ft 320 kts 308°
2026-05-05 14:03 68.91002 19.90046 18790 ft 318 kts 308°
2026-05-05 14:03 68.92348 19.85192 18281 ft 316 kts 308°
2026-05-05 14:03 68.93684 19.80364 17753 ft 314 kts 308°
2026-05-05 14:04 68.95159 19.75922 17182 ft 312 kts 320°
2026-05-05 14:04 68.96930 19.72472 16619 ft 310 kts 330°
2026-05-05 14:04 68.98801 19.69510 16058 ft 308 kts 330°
2026-05-05 14:04 69.00656 19.66558 15518 ft 306 kts 330°
2026-05-05 14:05 69.02501 19.63605 14982 ft 305 kts 330°
2026-05-05 14:05 69.04312 19.60702 14469 ft 303 kts 330°
2026-05-05 14:05 69.06137 19.57774 13950 ft 302 kts 330°
2026-05-05 14:05 69.07955 19.54855 13443 ft 301 kts 330°
2026-05-05 14:06 69.09766 19.51943 12880 ft 299 kts 330°
2026-05-05 14:06 69.11566 19.49036 12324 ft 298 kts 330°
2026-05-05 14:06 69.13356 19.46134 11776 ft 297 kts 330°
2026-05-05 14:06 69.15139 19.43243 11238 ft 295 kts 330°
2026-05-05 14:07 69.16914 19.40374 10713 ft 294 kts 330°
2026-05-05 14:07 69.18678 19.37499 10179 ft 293 kts 330°
2026-05-05 14:07 69.20432 19.34612 9723 ft 290 kts 329°
2026-05-05 14:07 69.22113 19.31827 9614 ft 268 kts 329°
2026-05-05 14:08 69.23144 19.30120 9622 ft 252 kts 329°
2026-05-05 14:08 69.24608 19.27699 9626 ft 237 kts 329°
2026-05-05 14:08 69.26015 19.25366 9410 ft 233 kts 329°
2026-05-05 14:08 69.27412 19.23057 9112 ft 232 kts 330°
2026-05-05 14:09 69.28799 19.20762 8808 ft 230 kts 330°
2026-05-05 14:09 69.30177 19.18479 8496 ft 229 kts 330°
2026-05-05 14:09 69.31554 19.16194 8192 ft 228 kts 329°
2026-05-05 14:09 69.32923 19.13909 7902 ft 227 kts 329°
2026-05-05 14:10 69.34282 19.11632 7621 ft 226 kts 329°
2026-05-05 14:10 69.34720 19.10897 7520 ft 226 kts 329°
2026-05-05 14:10 69.35209 19.10079 7406 ft 226 kts 330°
2026-05-05 14:10 69.36566 19.07808 7100 ft 225 kts 330°
2026-05-05 14:11 69.37912 19.05556 6808 ft 224 kts 329°
2026-05-05 14:11 69.39089 19.02990 6540 ft 223 kts 314°
2026-05-05 14:11 69.39983 18.99421 6245 ft 223 kts 297°
2026-05-05 14:11 69.40473 18.95253 5949 ft 223 kts 283°
2026-05-05 14:12 69.40810 18.90946 5658 ft 222 kts 284°
2026-05-05 14:12 69.41145 18.86740 5512 ft 214 kts 284°
2026-05-05 14:12 69.41477 18.82644 5273 ft 212 kts 284°
2026-05-05 14:12 69.42006 18.78819 5051 ft 205 kts 310°
2026-05-05 14:13 69.43128 18.76435 4984 ft 204 kts 343°
2026-05-05 14:13 69.44526 18.76184 4993 ft 204 kts 12°
2026-05-05 14:13 69.45872 18.77058 4993 ft 192 kts 13°
2026-05-05 14:13 69.47147 18.77907 5031 ft 187 kts 13°
2026-05-05 14:14 69.48413 18.78740 5004 ft 185 kts 13°
2026-05-05 14:14 69.49668 18.79563 4870 ft 184 kts 13°
2026-05-05 14:14 69.50918 18.80382 4602 ft 184 kts 13°
2026-05-05 14:14 69.52165 18.81199 4281 ft 184 kts 14°
2026-05-05 14:15 69.53420 18.82024 3935 ft 185 kts 14°
2026-05-05 14:15 69.54654 18.82835 3590 ft 183 kts 14°
2026-05-05 14:15 69.55878 18.83640 3250 ft 177 kts 14°
2026-05-05 14:15 69.57066 18.84423 2926 ft 172 kts 14°
2026-05-05 14:16 69.58207 18.85175 2618 ft 165 kts 14°
2026-05-05 14:16 69.59310 18.85903 2303 ft 157 kts 14°
2026-05-05 14:16 69.60330 18.86577 2046 ft 142 kts 14°
2026-05-05 14:16 69.61256 18.87189 1772 ft 133 kts 14°
2026-05-05 14:17 69.62142 18.87776 1504 ft 129 kts 14°
2026-05-05 14:17 69.63018 18.88357 1247 ft 128 kts 14°
2026-05-05 14:17 69.63885 18.88933 1004 ft 128 kts 15°
2026-05-05 14:17 69.64754 18.89523 771 ft 127 kts 14°
2026-05-05 14:18 69.65613 18.90079 532 ft 126 kts 14°
2026-05-05 14:18 69.66466 18.90639 293 ft 125 kts 14°
2026-05-05 14:18 69.67310 18.91205 69 ft 123 kts 14°
2026-05-05 14:18 69.68055 18.91705 33 ft 91 kts 13°
2026-05-05 14:19 69.68517 18.92011 28 ft 46 kts 12°
2026-05-05 14:19 69.68683 18.92114 23 ft 9 kts 13°
2026-05-05 14:19 69.68747 18.92111 21 ft 10 kts 316°
2026-05-05 14:19 69.68772 18.91876 20 ft 14 kts 282°
2026-05-05 14:20 69.68739 18.91695 21 ft 12 kts 198°
2026-05-05 14:20 69.68655 18.91637 25 ft 12 kts 192°
2026-05-05 14:20 69.68571 18.91580 26 ft 14 kts 193°
2026-05-05 14:20 69.68468 18.91510 26 ft 17 kts 191°
2026-05-05 14:21 69.68352 18.91499 27 ft 15 kts 180°
2026-05-05 14:21 69.68243 18.91443 28 ft 17 kts 193°
2026-05-05 14:21 69.68125 18.91364 32 ft 18 kts 193°
2026-05-05 14:21 69.67999 18.91278 34 ft 13 kts 193°
2026-05-05 14:22 69.67905 18.91214 37 ft 12 kts 193°
2026-05-05 14:22 69.67874 18.91142 36 ft 6 kts 268°
2026-05-05 14:22 69.67886 18.90994 35 ft 10 kts 284°
2026-05-05 14:22 69.67897 18.90866 36 ft 0 kts 283°